Total_Precipitation_Accumulation
0.00 0.00 0.00 0.00 0.01 0.00 0.00 0.00 0.00 0.00 0.00 0.00 0.00 0.00 0.00 0.00 0.00 0.00 0.00 0.00 0.00 0.00 0.01 0.01 0.01 0.01 0.02 0.04 0.05 0.06 0.07 0.06 0.05 0.05 0.05 0.05 0.05 0.05 0.07 0.08 0.09 0.09 0.10
0.00 0.00 0.00 0.00 0.00 0.00 0.00 0.00 0.00 0.00 0.00 0.00 0.00 0.00 0.00 0.00 0.00 0.00 0.00 0.00 0.00 0.00 0.00 0.01 0.01 0.03 0.04 0.05 0.05 0.05 0.05 0.05 0.05 0.05 0.06 0.06 0.06 0.07 0.08 0.09 0.10 0.11 0.12
0.00 0.00 0.00 0.00 0.00 0.00 0.00 0.00 0.00 0.00 0.00 0.00 0.00 0.00 0.00 0.00 0.00 0.00 0.00 0.00 0.00 0.00 0.00 0.00 0.02 0.04 0.05 0.04 0.03 0.03 0.04 0.04 0.05 0.06 0.07 0.07 0.08 0.08 0.09 0.10 0.11 0.12 0.13
0.01 0.00 0.00 0.00 0.00 0.00 0.00 0.00 0.00 0.00 0.00 0.00 0.00 0.00 0.00 0.00 0.00 0.00 0.00 0.00 0.00 0.00 0.00 0.00 0.02 0.03 0.04 0.04 0.03 0.03 0.03 0.04 0.05 0.05 0.05 0.05 0.06 0.07 0.09 0.10 0.11 0.13 0.14
0.03 0.02 0.01 0.01 0.01 0.01 0.00 0.00 0.00 0.00 0.00 0.00 0.00 0.00 0.00 0.00 0.00 0.00 0.00 0.00 0.00 0.01 0.01 0.01 0.01 0.02 0.03 0.03 0.03 0.03 0.03 0.04 0.04 0.03 0.02 0.03 0.04 0.05 0.07 0.09 0.11 0.13 0.14
0.09 0.06 0.03 0.03 0.04 0.03 0.02 0.02 0.02 0.02 0.02 0.02 0.02 0.01 0.01 0.01 0.01 0.00 0.00 0.01 0.01 0.02 0.02 0.02 0.02 0.01 0.01 0.02 0.02 0.03 0.05 0.05 0.03 0.01 0.01 0.01 0.02 0.03 0.04 0.06 0.09 0.11 0.14
0.19 0.16 0.09 0.08 0.08 0.06 0.06 0.06 0.06 0.05 0.05 0.06 0.05 0.02 0.01 0.01 0.01 0.01 0.01 0.01 0.01 0.02 0.02 0.03 0.02 0.01 0.01 0.01 0.02 0.02 0.04 0.06 0.06 0.03 0.02 0.01 0.01 0.01 0.03 0.06 0.08 0.11 0.15
0.22 0.20 0.15 0.14 0.15 0.13 0.11 0.10 0.10 0.08 0.08 0.10 0.09 0.07 0.03 0.01 0.00 0.01 0.01 0.01 0.02 0.03 0.03 0.04 0.03 0.03 0.02 0.01 0.01 0.02 0.03 0.07 0.10 0.10 0.07 0.04 0.02 0.03 0.04 0.06 0.09 0.12 0.16
0.22 0.19 0.20 0.21 0.19 0.18 0.14 0.14 0.15 0.13 0.12 0.13 0.13 0.14 0.08 0.02 0.01 0.01 0.02 0.02 0.03 0.02 0.03 0.04 0.04 0.04 0.03 0.03 0.03 0.04 0.05 0.07 0.10 0.15 0.15 0.12 0.08 0.06 0.07 0.09 0.12 0.16 0.18
0.22 0.22 0.21 0.22 0.21 0.19 0.17 0.19 0.22 0.20 0.19 0.16 0.15 0.12 0.11 0.07 0.06 0.04 0.02 0.04 0.05 0.04 0.05 0.05 0.05 0.05 0.04 0.05 0.06 0.08 0.11 0.12 0.14 0.19 0.24 0.25 0.19 0.16 0.16 0.18 0.20 0.22 0.22
0.21 0.23 0.23 0.23 0.21 0.21 0.22 0.24 0.26 0.26 0.25 0.22 0.19 0.20 0.19 0.13 0.08 0.09 0.07 0.05 0.06 0.07 0.07 0.06 0.06 0.05 0.06 0.07 0.09 0.13 0.18 0.19 0.21 0.25 0.30 0.34 0.34 0.32 0.33 0.34 0.33 0.32 0.29
0.15 0.19 0.22 0.22 0.23 0.25 0.25 0.27 0.31 0.33 0.34 0.31 0.26 0.22 0.25 0.23 0.18 0.18 0.16 0.11 0.11 0.11 0.11 0.10 0.10 0.10 0.11 0.13 0.16 0.22 0.26 0.29 0.32 0.35 0.38 0.44 0.48 0.49 0.50 0.49 0.48 0.46 0.43
0.12 0.14 0.18 0.20 0.24 0.28 0.33 0.37 0.37 0.37 0.40 0.39 0.36 0.32 0.31 0.29 0.29 0.30 0.29 0.23 0.19 0.17 0.17 0.18 0.18 0.18 0.20 0.22 0.26 0.34 0.39 0.43 0.46 0.48 0.52 0.60 0.62 0.59 0.55 0.52 0.53 0.53 0.52
0.17 0.21 0.23 0.26 0.29 0.32 0.33 0.35 0.36 0.37 0.40 0.41 0.41 0.39 0.34 0.31 0.33 0.36 0.40 0.44 0.41 0.35 0.32 0.31 0.32 0.33 0.34 0.36 0.41 0.47 0.46 0.51 0.51 0.52 0.57 0.62 0.61 0.56 0.49 0.45 0.47 0.49 0.51
0.15 0.19 0.22 0.25 0.26 0.27 0.28 0.30 0.30 0.32 0.34 0.35 0.36 0.37 0.35 0.32 0.32 0.35 0.40 0.47 0.54 0.51 0.42 0.35 0.36 0.38 0.40 0.42 0.47 0.46 0.44 0.50 0.52 0.51 0.53 0.54 0.51 0.47 0.42 0.40 0.39 0.39 0.38
0.12 0.16 0.19 0.21 0.21 0.21 0.21 0.22 0.23 0.24 0.26 0.26 0.27 0.29 0.29 0.28 0.29 0.32 0.37 0.42 0.48 0.53 0.50 0.39 0.35 0.37 0.40 0.42 0.45 0.41 0.38 0.44 0.43 0.43 0.43 0.43 0.40 0.36 0.32 0.31 0.31 0.31 0.32
0.12 0.15 0.17 0.17 0.16 0.15 0.15 0.16 0.16 0.17 0.18 0.18 0.19 0.21 0.23 0.23 0.25 0.27 0.31 0.36 0.41 0.46 0.51 0.46 0.41 0.42 0.43 0.40 0.39 0.35 0.31 0.30 0.28 0.31 0.31 0.30 0.28 0.26 0.24 0.23 0.22 0.23 0.24
0.11 0.12 0.12 0.11 0.10 0.09 0.10 0.11 0.13 0.13 0.14 0.15 0.17 0.19 0.21 0.23 0.26 0.28 0.31 0.34 0.37 0.38 0.41 0.40 0.36 0.33 0.32 0.29 0.25 0.21 0.17 0.15 0.13 0.16 0.17 0.18 0.17 0.16 0.15 0.15 0.17 0.19 0.22
0.09 0.08 0.07 0.07 0.07 0.07 0.09 0.10 0.11 0.11 0.13 0.15 0.17 0.19 0.21 0.23 0.27 0.28 0.29 0.31 0.32 0.31 0.31 0.31 0.27 0.23 0.20 0.18 0.15 0.12 0.09 0.07 0.06 0.06 0.07 0.08 0.09 0.10 0.12 0.14 0.15 0.14 0.14
0.08 0.07 0.06 0.06 0.07 0.07 0.09 0.10 0.11 0.12 0.15 0.16 0.19 0.21 0.24 0.26 0.27 0.28 0.29 0.30 0.28 0.25 0.23 0.23 0.23 0.21 0.18 0.13 0.10 0.07 0.05 0.04 0.03 0.03 0.03 0.04 0.05 0.05 0.05 0.05 0.05 0.05 0.05
0.07 0.07 0.07 0.08 0.09 0.10 0.12 0.13 0.15 0.18 0.22 0.25 0.27 0.29 0.30 0.32 0.31 0.28 0.25 0.22 0.19 0.18 0.21 0.26 0.26 0.19 0.12 0.08 0.06 0.04 0.04 0.03 0.02 0.02 0.02 0.01 0.01 0.01 0.01 0.01 0.02 0.03 0.05
0.10 0.12 0.13 0.16 0.19 0.22 0.30 0.27 0.23 0.23 0.27 0.29 0.30 0.30 0.29 0.28 0.25 0.23 0.20 0.18 0.19 0.23 0.30 0.32 0.23 0.12 0.06 0.04 0.04 0.05 0.07 0.09 0.06 0.01 0.01 0.01 0.00 0.00 0.00 0.01 0.02 0.03 0.05
0.25 0.28 0.30 0.32 0.35 0.42 0.46 0.40 0.36 0.31 0.31 0.31 0.29 0.26 0.23 0.20 0.18 0.14 0.12 0.13 0.15 0.19 0.20 0.14 0.07 0.03 0.03 0.04 0.08 0.13 0.12 0.12 0.08 0.01 0.02 0.02 0.00 0.01 0.01 0.01 0.01 0.01 0.02
0.55 0.57 0.58 0.56 0.53 0.52 0.49 0.42 0.37 0.32 0.30 0.26 0.21 0.16 0.13 0.10 0.08 0.08 0.09 0.14 0.11 0.08 0.04 0.02 0.02 0.02 0.03 0.04 0.08 0.14 0.14 0.10 0.03 0.01 0.01 0.02 0.00 0.00 0.00 0.00 0.00 0.00 0.02
0.72 0.67 0.65 0.60 0.53 0.46 0.37 0.28 0.21 0.17 0.15 0.13 0.10 0.07 0.06 0.05 0.06 0.10 0.15 0.17 0.07 0.01 0.01 0.02 0.03 0.03 0.03 0.02 0.03 0.10 0.15 0.15 0.09 0.01 0.00 0.00 0.00 0.00 0.00 0.00 0.00 0.00 0.02
0.58 0.50 0.45 0.39 0.33 0.28 0.21 0.15 0.11 0.08 0.06 0.05 0.03 0.02 0.02 0.03 0.06 0.12 0.13 0.09 0.02 0.01 0.02 0.01 0.00 0.00 0.00 0.00 0.01 0.07 0.20 0.35 0.26 0.12 0.00 0.04 0.06 0.08 0.15 0.02 0.00 0.00 0.01